Regional Weather Roundup
Issued by NWS

Home | Current Version | Previous Version | Graphics & Text | Print | Product List | Glossary On
Versions: 1 2 3 4 5 6 7 8 9 10 11 12 13 14 15 16 17 18 19 20 21 22 23 24 25 26 27 28 29 30 31 32 33 34 35 36 37 38 39 40 41 42 43 44 45 46 47 48 49 50
000
ASUS45 KPSR 261110
RWRAZ

ARIZONA REGIONAL HOURLY WEATHER ROUNDUP
NATIONAL WEATHER SERVICE TUCSON AZ
400 AM MST FRI MAY 26 2017

NOTE: FAIR INDICATES FEW OR NO CLOUDS BELOW 12,000 FEET WITH NO
SIGNIFICANT WEATHER AND/OR OBSTRUCTIONS TO VISIBILITY.

AZZ001>003-036-261200-
NORTHWEST ARIZONA

CITY           SKY/WX    TMP DP  RH WIND       PRES   REMARKS
BULLHEAD CITY  CLEAR     79  30  17 S17G24    29.64S
KINGMAN        CLEAR     66  23  19 SE14      29.78R
$$

AZZ004>008-015-016-018-261200-
NORTH CENTRAL ARIZONA

CITY           SKY/WX    TMP DP  RH WIND       PRES   REMARKS
GRAND CANYON   CLEAR     50  23  34 SW10      29.97S
WILLIAMS       SUNNY     48  19  32 SE10      29.98S
PRESCOTT       CLEAR     56  24  29 E6        29.93S
FLAGSTAFF      CLEAR     50  19  29 SW12G18   30.01R
PAYSON         SUNNY     61  19  20 VRB6G12   30.00S
PAGE           PTCLDY    67  19  16 S5        29.79R
$$

AZZ009>014-017-261200-
NORTHEAST ARIZONA

CITY           SKY/WX    TMP DP  RH WIND       PRES   REMARKS
WINSLOW        CLEAR     50  20  30 SE3       29.93S
SAINT JOHNS    CLEAR     59  15  18 VRB5      29.99S
WINDOW ROCK    CLEAR     52  15  23 S13       30.03S
SHOW LOW       CLEAR     52  14  22 S18G24    30.02F
$$

AZZ023-261200-
GREATER PHOENIX AREA

CITY           SKY/WX    TMP DP  RH WIND       PRES   REMARKS
PHOENIX        CLEAR     77  30  17 SE9       29.76R
BUCKEYE        SUNNY     68  37  32 S5        29.77S
LUKE AFB       CLEAR     73  35  25 SW12      29.76R
DEER VALLEY    CLEAR     71  26  18 E6        29.78S
SCOTTSDALE     CLEAR     74  30  19 SE6       29.80S
MESA-GATEWAY   CLEAR     73  28  19 S12       29.80S
$$

AZZ027-028-261200-
SOUTHWEST MARICOPA COUNTY AND PINAL COUNTY

CITY           SKY/WX    TMP DP  RH WIND       PRES   REMARKS
CASA GRANDE    CLEAR     72  28  19 S8        29.82R
$$

AZZ503-504-507>509-261200-
SOUTHEAST ARIZONA

CITY           SKY/WX    TMP DP  RH WIND       PRES   REMARKS
TUCSON         PTCLDY    74  35  24 S9        29.90S
DAVIS-MONTHAN  CLEAR     70  33  25 SE6       29.90R
NOGALES        CLEAR     62  28  27 SE7       29.98S
SIERRA VISTA   CLEAR     63  20  19 S5        30.04R
DOUGLAS        PTCLDY    64  28  25 SW12      30.02R
SAFFORD        CLEAR     64  13  13 E5        29.88S
$$

AZZ020-021-025-026-031-261200-
SOUTHWEST ARIZONA

CITY           SKY/WX    TMP DP  RH WIND       PRES   REMARKS
YUMA           CLEAR     68  38  33 NW6       29.73R
$$

CAZ031-033-041-043-047-048-061-261200-
SOUTHERN CALIFORNIA

CITY           SKY/WX    TMP DP  RH WIND       PRES   REMARKS
DOWNTOWN L.A.  CLOUDY    63  53  70 CALM      29.92S
L.A. AIRPORT   CLOUDY    61  54  77 W6        29.92F
SAN DIEGO      CLOUDY    64  50  60 SW3       29.95S
BURBANK        CLOUDY    59  49  69 SE5       29.92S
ONTARIO        CLOUDY    58  47  66 W8        29.92F
RIVERSIDE      CLOUDY    58  50  75 VRB3      29.92F
PALM SPRINGS   CLEAR     65  45  48 CALM      29.71R
EL CENTRO NAS  CLEAR     65  40  39 W21         N/A
IMPERIAL       LGT RAIN  65  43  44 W14       29.71S
BLYTHE         CLEAR     69  44  40 S21       29.69S
NEEDLES        CLEAR     79  32  18 SW6       29.67R
$$

NVZ020-UTZ003-261200-
SOUTHERN NEVADA-UTAH

CITY           SKY/WX    TMP DP  RH WIND       PRES   REMARKS
LAS VEGAS      PTCLDY    73  24  16 S8        29.62R
SALT LAKE CITY MOCLDY    54  39  57 N3        29.67F
$$

NMZ009-TXZ055-261200-
NEW MEXICO-WEST TEXAS

CITY           SKY/WX    TMP DP  RH WIND       PRES   REMARKS
ALBUQUERQUE    PTCLDY    58  10  15 SE6       30.00R
EL PASO        CLEAR     77  30  17 W18       29.95R
$$


........................KEY........................
SKY/WX - SKY CONDITION/WEATHER
TMP    - TEMPERATURE IN FAHRENHEIT
DP     - DEWPOINT IN FAHRENHEIT
RH     - RELATIVE HUMIDITY IN PERCENT
WIND   - DIRECTION AND SPEED IN MILES PER HOUR (MPH)
VRB    - VARIABLE WIND DIRECTION
PRES   - MEAN SEA LEVEL PRESSURE IN INCHES OF MERCURY
         F - FALLING PRESSURE   R - RISING PRESSURE
         S - STEADY PRESSURE
VSB    - VISIBILITY IN MILES
HX     - HEAT INDEX IN FAHRENHEIT
WCI    - WIND CHILL INDEX IN FAHRENHEIT
TC     - TEMPERATURE IN CELSIUS WHICH IS ALSO KNOWN AS
         TEMPERATURE IN CENTIGRADE
AFB    - AIR FORCE BASE
         LUKE AFB IS LUKE AIR FORCE BASE
         DAVIS-MONTHAN IS DAVIS-MONTHAN AIR FORCE BASE
NAS    - NAVAL AIR STATION
         EL CENTRO NAS IS EL CENTRO NAVAL AIR STATION
N/A    - NOT AVAILABLE




USA.gov is the U.S. government's official web portal to all federal, state and local government web resources and services.